Location: Ettringen
(48.1054°N, 10.6545°E)
Time: 20:58:56
(UTC+00:00)

USA 281 - Pass Details

Date: 18 November 2025
Orbit: 1079 x 1080 km, 106.0° (Epoch: 08 December)

Event Time Altitude Azimuth Distance (km) Brightness Sun altitude
Exits shadow 18:11:31 54° 66° (ENE) 1,302 3.2 -25.7°
Maximum altitude 18:11:49 54° 56° (NE) 1,296 3.3 -25.8°
Drops below altitude 10° 18:18:11 10° 341° (NNW) 2,930 5.7 -26.8°
Sets 18:20:45 0° 337° (NNW) 3,889 6.4 -27.2°
